Weather History for Fort Indiantown Gap, PA

Change the Weather History Date:

Thursday, March 15, 2012

  Actual Average Record
Temperature  
Mean Temperature 54 °F -  
Max Temperature 66 °F 44 °F 66 °F (2002)
Min Temperature 43 °F 30 °F 22 °F (2013)
Degree Days  
Heating Degree Days 11    
Growing Degree Days 4 (Base 50)    
Moisture  
Dew Point 41 °F    
Average Humidity 64    
Maximum Humidity 83    
Minimum Humidity 41    
Precipitation  
Precipitation 0.00 in - - ()
Sea Level Pressure  
Sea Level Pressure 30.21 in    
Wind  
Wind Speed 4 mph (ENE)    
Max Wind Speed 9 mph    
Max Gust Speed 17 mph    
Visibility 10 miles    
Events      
Averages and records for this station are not official NWS values.
T = Trace of Precipitation, MM = Missing Value Source: NWS Daily Summary

Daily Weather History Graph

Daily Weather History Graph

Search for Another Location

Airport:

Trip Planner

Search our weather history database for the weather conditions in past years. The results will help you decide how hot, cold, wet, or windy it might be!

Date:

Astronomy

Mar. 15, 2012 Rise Set
Actual Time 7:17 AM EDT 7:13 PM EDT
Civil Twilight 6:49 AM EDT 7:40 PM EDT
Nautical Twilight 6:18 AM EDT 8:12 PM EDT
Astronomical Twilight 5:46 AM EDT 8:44 PM EDT
Moon 2:43 AM EDT (3/15) 12:27 PM EDT (3/15)
Length of Visible Light 12h 50m
Length of Day
11h 56m
Last Quarter, 43% of the Moon is Illuminated
Mar 15
Last Quarter
Mar 22
New
Mar 30
First Quarter
Apr 6
Full
Apr 13
Last Quarter

Hourly Weather History & Observations

Time (EDT) Temp. Windchill Dew Point Humidity Pressure Visibility Wind Dir Wind Speed Gust Speed Precip Events Conditions
12:55 AM 46.9 °F - 39.0 °F 74% 30.17 in 10.0 mi Calm Calm - N/A   Clear
1:55 AM 46.9 °F - 39.6 °F 76% 30.19 in 10.0 mi Calm Calm - N/A   Clear
2:55 AM 46.2 °F - 38.7 °F 75% 30.18 in 10.0 mi Calm Calm - N/A   Clear
3:55 AM 43.2 °F - 38.1 °F 82% 30.17 in 10.0 mi Calm Calm - N/A   Clear
4:55 AM 43.7 °F - 37.9 °F 80% 30.17 in 10.0 mi Calm Calm - N/A   Clear
5:55 AM 43.9 °F 42.3 °F 37.8 °F 79% 30.19 in 10.0 mi NNE 3.5 mph - N/A   Clear
6:55 AM 43.0 °F 40.3 °F 37.0 °F 80% 30.20 in 10.0 mi NNE 4.6 mph - N/A   Clear
7:55 AM 43.5 °F 41.9 °F 36.3 °F 76% 30.22 in 10.0 mi NE 3.5 mph - N/A   Clear
8:55 AM 52.0 °F - 34.5 °F 51% 30.24 in 10.0 mi ENE 4.6 mph - N/A   Clear
9:55 AM 56.8 °F - 33.1 °F 41% 30.25 in 10.0 mi East 9.2 mph - N/A   Clear
10:55 AM 58.6 °F - 35.1 °F 41% 30.25 in 10.0 mi East 9.2 mph - N/A   Clear
11:55 AM 60.6 °F - 38.7 °F 44% 30.24 in 10.0 mi East 8.1 mph - N/A   Clear
12:55 PM 62.6 °F - 40.3 °F 44% 30.24 in 10.0 mi East 6.9 mph - N/A   Partly Cloudy
1:55 PM 64.8 °F - 43.5 °F 46% 30.22 in 10.0 mi ENE 8.1 mph - N/A   Partly Cloudy
2:55 PM 65.8 °F - 46.4 °F 49% 30.19 in 10.0 mi East 8.1 mph - N/A   Clear
3:55 PM 65.1 °F - 46.2 °F 50% 30.18 in 10.0 mi East 9.2 mph - N/A   Clear
4:55 PM 63.9 °F - 46.6 °F 53% 30.17 in 10.0 mi East 6.9 mph - N/A   Clear
5:55 PM 63.5 °F - 46.4 °F 54% 30.16 in 10.0 mi Variable 5.8 mph - N/A   Clear
6:55 PM 61.0 °F - 45.9 °F 58% 30.17 in 10.0 mi ENE 8.1 mph - N/A   Clear
7:55 PM 59.0 °F - 45.7 °F 61% 30.19 in 10.0 mi East 6.9 mph - N/A   Overcast
8:55 PM 55.6 °F - 44.6 °F 67% 30.20 in 10.0 mi East 9.2 mph 17.3 mph N/A   Overcast
9:55 PM 52.9 °F - 44.2 °F 72% 30.22 in 10.0 mi East 8.1 mph - N/A   Overcast
10:55 PM 49.8 °F - 43.3 °F 78% 30.25 in 10.0 mi East 9.2 mph - N/A   Overcast
11:48 PM 48.2 °F - 42.8 °F 82% 30.24 in 10.0 mi East 8.1 mph - N/A   Mostly Cloudy
11:55 PM 48.2 °F - 43.3 °F 83% 30.24 in 10.0 mi East 6.9 mph - N/A   Mostly Cloudy